EWG7WB EDDG-EHAM

Flight info

Callsign EWG7WB
Flight time 0h 31m
Altitude 18000
Route AMSAN L980 RKN
Aircraft A320/M-SDE3FGHIRWY/LB1

Departure

Time 2026-04-28 15:17
Airport Münster Osnabrück Airport (EDDG)

Arrival

Time 2026-04-28 15:48
Airport Amsterdam Airport Schiphol (EHAM)
Time Latitude Longitude Altitude Speed Heading
2026-04-28 14:59 52.13179 7.69453 164 ft 0 kts 194°
2026-04-28 15:13 52.13174 7.69435 164 ft 2 kts 269°
2026-04-28 15:13 52.13180 7.69412 164 ft 3 kts 288°
2026-04-28 15:13 52.13186 7.69386 164 ft 4 kts 293°
2026-04-28 15:13 52.13243 7.69332 164 ft 16 kts 335°
2026-04-28 15:14 52.13360 7.69262 164 ft 17 kts 341°
2026-04-28 15:14 52.13425 7.69122 162 ft 19 kts 256°
2026-04-28 15:14 52.13376 7.68924 165 ft 19 kts 245°
2026-04-28 15:14 52.13329 7.68714 164 ft 21 kts 258°
2026-04-28 15:15 52.13293 7.68494 168 ft 20 kts 250°
2026-04-28 15:15 52.13242 7.68273 166 ft 22 kts 256°
2026-04-28 15:15 52.13192 7.68025 165 ft 24 kts 249°
2026-04-28 15:15 52.13135 7.67761 163 ft 26 kts 250°
2026-04-28 15:16 52.13077 7.67468 162 ft 29 kts 252°
2026-04-28 15:16 52.13037 7.67159 165 ft 25 kts 292°
2026-04-28 15:16 52.13150 7.67052 165 ft 16 kts 32°
2026-04-28 15:16 52.13216 7.67307 164 ft 51 kts 71°
2026-04-28 15:17 52.13411 7.68230 168 ft 117 kts 71°
2026-04-28 15:17 52.13719 7.69661 541 ft 137 kts 73°
2026-04-28 15:17 52.14070 7.71092 1283 ft 135 kts 65°
2026-04-28 15:17 52.14749 7.72303 1623 ft 166 kts 30°
2026-04-28 15:18 52.16010 7.72352 1937 ft 208 kts 346°
2026-04-28 15:18 52.17375 7.71051 2353 ft 245 kts 327°
2026-04-28 15:18 52.18432 7.68682 2974 ft 277 kts 290°
2026-04-28 15:18 52.18654 7.65532 3969 ft 283 kts 269°
2026-04-28 15:19 52.18453 7.62354 4997 ft 287 kts 261°
2026-04-28 15:19 52.18113 7.59124 5983 ft 289 kts 259°
2026-04-28 15:19 52.17768 7.55862 6894 ft 295 kts 261°
2026-04-28 15:19 52.17470 7.52534 7836 ft 298 kts 263°
2026-04-28 15:20 52.17224 7.49186 8833 ft 297 kts 264°
2026-04-28 15:20 52.17016 7.45808 9766 ft 300 kts 265°
2026-04-28 15:20 52.16833 7.42397 10561 ft 309 kts 266°
2026-04-28 15:20 52.16652 7.38785 10856 ft 333 kts 266°
2026-04-28 15:21 52.16458 7.34887 11127 ft 355 kts 266°
2026-04-28 15:21 52.16254 7.30793 11617 ft 368 kts 266°
2026-04-28 15:21 52.16044 7.26629 12393 ft 371 kts 266°
2026-04-28 15:21 52.15828 7.22407 13181 ft 374 kts 266°
2026-04-28 15:22 52.15648 7.18155 13944 ft 378 kts 272°
2026-04-28 15:22 52.16062 7.13929 14570 ft 379 kts 289°
2026-04-28 15:22 52.16983 7.09889 15263 ft 382 kts 292°
2026-04-28 15:22 52.17925 7.05843 15969 ft 384 kts 293°
2026-04-28 15:23 52.18876 7.01753 16632 ft 387 kts 293°
2026-04-28 15:23 52.19815 6.97689 17303 ft 389 kts 292°
2026-04-28 15:23 52.20767 6.93549 17959 ft 391 kts 293°
2026-04-28 15:23 52.21723 6.89385 18204 ft 394 kts 292°
2026-04-28 15:24 52.22700 6.85119 18259 ft 410 kts 291°
2026-04-28 15:24 52.23724 6.80637 18256 ft 421 kts 291°
2026-04-28 15:24 52.24737 6.76195 18260 ft 424 kts 292°
2026-04-28 15:24 52.25767 6.71667 18256 ft 426 kts 292°
2026-04-28 15:25 52.26796 6.67127 18260 ft 426 kts 292°
2026-04-28 15:25 52.27822 6.62593 18260 ft 427 kts 292°
2026-04-28 15:25 52.28849 6.58045 18257 ft 427 kts 292°
2026-04-28 15:25 52.29874 6.53491 18261 ft 427 kts 292°
2026-04-28 15:26 52.30897 6.48945 18264 ft 426 kts 291°
2026-04-28 15:26 52.31918 6.44398 18263 ft 426 kts 291°
2026-04-28 15:26 52.32942 6.39819 18250 ft 427 kts 291°
2026-04-28 15:26 52.33956 6.35263 18232 ft 426 kts 291°
2026-04-28 15:27 52.34955 6.30769 17741 ft 417 kts 292°
2026-04-28 15:27 52.35939 6.26340 17178 ft 411 kts 292°
2026-04-28 15:27 52.36894 6.22039 16658 ft 404 kts 292°
2026-04-28 15:27 52.37850 6.17737 16126 ft 400 kts 292°
2026-04-28 15:28 52.38796 6.13479 15580 ft 397 kts 292°
2026-04-28 15:28 52.39735 6.09247 15027 ft 393 kts 292°
2026-04-28 15:28 52.40665 6.05042 14459 ft 391 kts 292°
2026-04-28 15:28 52.41585 6.00859 13854 ft 390 kts 292°
2026-04-28 15:29 52.42500 5.96688 13233 ft 387 kts 291°
2026-04-28 15:29 52.43403 5.92561 12623 ft 385 kts 291°
2026-04-28 15:29 52.44303 5.88427 12000 ft 383 kts 291°
2026-04-28 15:29 52.45196 5.84327 11357 ft 381 kts 291°
2026-04-28 15:30 52.46072 5.80304 11081 ft 361 kts 290°
2026-04-28 15:30 52.46875 5.76585 10948 ft 333 kts 291°
2026-04-28 15:30 52.47619 5.73115 10707 ft 314 kts 292°
2026-04-28 15:30 52.48332 5.69799 10315 ft 304 kts 292°
2026-04-28 15:31 52.49041 5.66508 10126 ft 306 kts 292°
2026-04-28 15:31 52.49750 5.63241 10005 ft 308 kts 292°
2026-04-28 15:31 52.50368 5.59860 9882 ft 310 kts 281°
2026-04-28 15:31 52.50458 5.56376 9750 ft 304 kts 264°
2026-04-28 15:32 52.49939 5.53008 9612 ft 305 kts 251°
2026-04-28 15:32 52.49516 5.50766 9522 ft 301 kts 253°
2026-04-28 15:32 52.48732 5.46386 9341 ft 305 kts 251°
2026-04-28 15:32 52.48061 5.43097 9208 ft 305 kts 250°
2026-04-28 15:33 52.47352 5.39818 9048 ft 304 kts 249°
2026-04-28 15:33 52.46638 5.36575 8660 ft 301 kts 249°
2026-04-28 15:33 52.45928 5.33353 8290 ft 299 kts 249°
2026-04-28 15:33 52.45230 5.30168 7962 ft 295 kts 249°
2026-04-28 15:34 52.44537 5.26978 7532 ft 295 kts 250°
2026-04-28 15:34 52.43850 5.23803 7279 ft 296 kts 249°
2026-04-28 15:34 52.43164 5.20626 7264 ft 296 kts 250°
2026-04-28 15:34 52.42480 5.17452 7273 ft 297 kts 250°
2026-04-28 15:35 52.41793 5.14282 7268 ft 294 kts 249°
2026-04-28 15:35 52.40430 5.07966 7252 ft 295 kts 249°
2026-04-28 15:35 52.39738 5.04775 7248 ft 298 kts 249°
2026-04-28 15:36 52.39044 5.01584 7245 ft 295 kts 249°
2026-04-28 15:36 52.38354 4.98419 7246 ft 295 kts 249°
2026-04-28 15:36 52.37667 4.95271 7259 ft 294 kts 249°
2026-04-28 15:36 52.36977 4.92117 7252 ft 294 kts 250°
2026-04-28 15:37 52.36523 4.88856 7250 ft 296 kts 261°
2026-04-28 15:37 52.36255 4.85561 7238 ft 296 kts 263°
2026-04-28 15:37 52.36003 4.82225 7248 ft 294 kts 263°
2026-04-28 15:37 52.35836 4.79977 7249 ft 296 kts 263°
2026-04-28 15:38 52.35508 4.75579 7238 ft 293 kts 263°
2026-04-28 15:38 52.35258 4.72272 7225 ft 293 kts 263°
2026-04-28 15:38 52.35010 4.68966 6884 ft 292 kts 263°
2026-04-28 15:38 52.34759 4.65663 6453 ft 292 kts 263°
2026-04-28 15:39 52.34511 4.62365 6028 ft 291 kts 262°
2026-04-28 15:39 52.34187 4.59119 5649 ft 287 kts 250°
2026-04-28 15:39 52.33436 4.56112 5230 ft 285 kts 243°
2026-04-28 15:39 52.32602 4.53176 4810 ft 284 kts 243°
2026-04-28 15:40 52.32046 4.51244 4522 ft 284 kts 243°
2026-04-28 15:40 52.31203 4.48373 4324 ft 273 kts 243°
2026-04-28 15:40 52.30394 4.45627 4204 ft 262 kts 243°
2026-04-28 15:40 52.29606 4.43000 4064 ft 255 kts 240°
2026-04-28 15:41 52.28476 4.40888 3979 ft 240 kts 207°
2026-04-28 15:41 52.26997 4.40130 3961 ft 211 kts 172°
2026-04-28 15:41 52.25638 4.40543 3774 ft 191 kts 155°
2026-04-28 15:41 52.24400 4.41196 3569 ft 184 kts 153°
2026-04-28 15:42 52.23187 4.41862 3234 ft 185 kts 152°
2026-04-28 15:42 52.22031 4.42710 2925 ft 176 kts 130°
2026-04-28 15:42 52.21454 4.44319 2622 ft 162 kts 99°
2026-04-28 15:42 52.21241 4.46109 2307 ft 161 kts 94°
2026-04-28 15:43 52.21090 4.47915 2060 ft 159 kts 93°
2026-04-28 15:43 52.20948 4.49717 1982 ft 162 kts 93°
2026-04-28 15:43 52.20818 4.51557 1984 ft 162 kts 88°
2026-04-28 15:43 52.21032 4.53283 1980 ft 152 kts 64°
2026-04-28 15:44 52.21568 4.54710 1985 ft 144 kts 58°
2026-04-28 15:44 52.22093 4.56064 1985 ft 140 kts 59°
2026-04-28 15:44 52.22614 4.57410 1991 ft 140 kts 59°
2026-04-28 15:44 52.23126 4.58732 1994 ft 133 kts 59°
2026-04-28 15:45 52.23606 4.59974 1888 ft 127 kts 58°
2026-04-28 15:45 52.24072 4.61178 1754 ft 123 kts 59°
2026-04-28 15:45 52.24527 4.62357 1612 ft 123 kts 59°
2026-04-28 15:45 52.24979 4.63534 1458 ft 122 kts 58°
2026-04-28 15:46 52.25433 4.64707 1259 ft 122 kts 59°
2026-04-28 15:46 52.25891 4.65888 1079 ft 123 kts 58°
2026-04-28 15:46 52.26344 4.67062 939 ft 122 kts 58°
2026-04-28 15:46 52.26792 4.68233 788 ft 122 kts 58°
2026-04-28 15:47 52.27242 4.69396 638 ft 120 kts 57°
2026-04-28 15:47 52.27697 4.70569 449 ft 124 kts 57°
2026-04-28 15:47 52.28150 4.71750 277 ft 122 kts 57°
2026-04-28 15:47 52.28595 4.72916 136 ft 122 kts 56°
2026-04-28 15:48 52.29043 4.74074 27 ft 119 kts 56°
2026-04-28 15:48 52.29467 4.75167 -5 ft 97 kts 58°
2026-04-28 15:48 52.29680 4.75698 -3 ft 33 kts 44°
2026-04-28 15:48 52.29834 4.75851 -4 ft 19 kts 27°
2026-04-28 15:49 52.29889 4.75895 -3 ft 0 kts 26°
2026-04-28 15:50 52.29900 4.75904 -3 ft 6 kts 26°
2026-04-28 15:50 52.29929 4.75927 -3 ft 3 kts 26°
2026-04-28 15:50 52.29957 4.75950 -3 ft 6 kts 27°
2026-04-28 15:51 52.29994 4.75998 -3 ft 8 kts 50°
2026-04-28 15:51 52.30028 4.76082 -3 ft 10 kts 58°
2026-04-28 15:51 52.30068 4.76186 -3 ft 12 kts 57°